Wind_Gust
0 0 0 0 0 0 0 0 0 0 0 0 0 0 0 0 0 0 0 0 0 0 0 0 0 0 0 0 0 0 0 0 0 0 0 0 0 0 0 0 0 0 0 0 0 0 0 0 0 0 0 0 0 0 0 0 0 0 0 0 0 0 0 0 0 0 0 0 0 0 0 0 0 0 0 0 0 0 0 0 0 0 0 0 0 0 0 0 0 0 0 0 0 0 0 0 0
0 0 0 0 0 0 0 0 0 0 0 0 0 0 0 0 0 0 0 0 0 0 0 0 0 0 0 0 0 0 0 0 0 0 0 0 0 0 0 0 0 0 0 0 0 0 0 0 0 0 0 0 0 0 0 0 0 0 0 0 0 0 0 0 0 0 0 0 0 0 0 0 0 0 0 0 0 0 0 0 0 0 0 0 0 0 0 0 0 0 0 0 0 0 0 0 0
0 0 0 0 0 0 0 0 0 0 0 0 0 0 0 0 0 0 0 0 0 0 0 0 0 0 0 0 0 0 0 0 0 0 0 0 0 0 0 0 0 0 0 0 0 0 0 0 0 0 0 0 0 0 0 0 0 0 0 0 0 0 0 0 0 0 0 0 0 0 0 0 0 0 0 0 0 0 0 0 0 0 0 0 0 0 0 0 0 0 0 0 0 0 0 0 0
0 0 0 0 0 0 0 0 0 0 0 0 0 0 0 0 0 0 0 0 0 0 0 0 0 0 0 0 0 0 0 0 0 0 0 0 0 0 0 0 0 0 0 0 0 0 0 0 0 0 0 0 0 0 0 0 0 0 0 0 0 0 0 0 0 0 0 0 0 0 0 0 0 0 0 0 0 0 0 0 0 0 0 0 0 0 0 0 0 0 0 0 0 0 0 0 0
0 0 0 0 0 0 0 0 0 0 0 0 0 0 0 0 0 0 0 0 0 0 0 0 0 0 0 0 0 0 0 0 0 0 0 0 0 0 0 0 0 0 0 0 0 0 0 0 0 0 0 0 0 0 0 0 0 0 0 0 0 0 0 0 0 0 0 0 0 0 0 0 0 0 0 0 0 0 0 0 0 0 0 0 0 0 0 0 0 0 0 0 0 0 0 0 0
0 0 0 0 0 0 0 0 0 0 0 0 0 0 0 0 0 0 0 0 0 0 0 0 0 0 0 0 0 0 0 0 0 0 0 0 0 0 0 0 0 0 0 0 0 0 0 0 0 0 0 0 0 0 0 0 0 0 0 0 0 0 0 0 0 0 0 0 0 0 0 0 0 0 0 0 0 0 0 0 0 0 0 0 0 0 0 0 0 0 0 0 0 0 0 0 0
0 0 0 0 0 0 0 0 0 0 0 0 0 0 0 0 0 0 0 0 0 0 0 0 0 0 0 0 0 0 0 0 0 0 0 0 0 0 0 0 0 0 0 0 0 0 0 0 0 0 0 0 0 0 0 0 0 0 0 0 0 0 0 0 0 0 0 0 0 0 0 0 0 0 0 0 0 0 0 0 0 0 0 0 0 0 0 0 0 0 0 0 0 0 0 0 0
0 0 0 0 0 0 0 0 0 0 0 0 0 0 0 0 0 0 0 0 0 0 0 0 0 0 0 0 0 0 0 0 0 0 0 0 0 0 0 0 0 0 0 0 0 0 0 0 0 0 0 0 0 0 0 0 0 0 0 0 0 0 0 0 0 0 0 0 0 0 0 0 0 0 0 0 0 0 0 0 0 0 0 0 0 0 0 0 0 0 0 0 0 0 0 0 0
0 0 0 0 0 0 0 0 0 0 0 0 0 0 0 0 0 0 0 0 0 0 0 0 0 0 0 0 0 0 0 0 0 0 0 0 0 0 0 0 0 0 0 0 0 0 0 0 0 0 0 0 0 0 0 0 0 0 0 0 0 0 0 0 0 0 0 0 0 0 0 0 0 0 0 0 0 0 0 0 0 0 0 0 0 0 0 0 0 0 0 0 0 0 0 0 0
0 0 0 0 0 0 0 0 0 0 0 0 0 0 0 0 0 0 0 0 0 0 0 0 0 0 0 0 0 0 0 0 0 0 0 0 0 0 0 0 0 0 0 0 0 0 0 0 0 0 0 0 0 0 0 0 0 0 0 0 0 0 0 0 0 0 0 0 0 0 0 0 0 0 0 0 0 0 0 0 0 0 0 0 0 0 0 0 0 0 0 0 0 0 0 0 0
0 0 0 0 0 0 0 0 0 0 0 0 0 0 0 0 0 0 0 0 0 0 0 0 0 0 0 0 0 0 0 0 0 0 0 0 0 0 0 0 0 0 0 0 0 0 0 0 0 0 0 0 0 0 0 0 0 0 0 0 0 0 0 0 0 0 0 0 0 0 0 0 0 0 0 0 0 0 0 0 0 0 0 0 0 0 0 0 0 0 0 0 0 0 0 0 0
0 0 0 0 0 0 0 0 0 0 0 0 0 0 0 0 0 0 0 0 0 0 0 0 0 0 0 0 0 0 0 0 0 0 0 0 0 0 0 0 0 0 0 0 0 0 0 0 0 0 0 0 0 0 0 0 0 0 0 0 0 0 0 0 0 0 0 0 0 0 0 0 0 0 0 0 0 0 0 0 0 0 0 0 0 0 0 0 0 0 0 0 0 0 0 0 0
0 0 0 0 0 0 0 0 0 0 0 0 0 0 0 0 0 0 0 0 0 0 0 0 0 0 0 0 0 0 0 0 0 0 0 0 0 0 0 0 0 0 0 0 0 0 0 0 0 0 0 0 0 0 0 0 0 0 0 0 0 0 0 0 0 0 0 0 0 0 0 0 0 0 0 0 0 0 0 0 0 0 0 0 0 0 0 0 0 0 0 0 0 0 0 0 0
0 0 0 0 0 0 0 0 0 0 0 0 0 0 0 0 0 0 0 0 0 0 0 0 0 0 0 0 0 0 0 0 0 0 0 0 0 0 0 0 0 0 0 0 0 0 0 0 0 0 0 0 0 0 0 0 0 0 0 0 0 0 0 0 0 0 0 0 0 0 0 0 0 0 0 0 0 0 0 0 0 0 0 0 0 0 0 0 0 0 0 0 0 0 0 0 0
0 0 0 0 0 0 0 0 0 0 0 0 0 0 0 0 0 0 0 0 0 0 0 0 0 0 0 0 0 0 0 0 0 0 0 0 0 0 0 0 0 0 0 0 0 0 0 0 0 0 0 0 0 0 0 0 0 0 0 0 0 0 0 0 0 0 0 0 0 0 0 0 0 0 0 0 0 0 0 0 0 0 0 0 0 0 0 0 0 0 0 0 0 0 0 0 0
0 0 0 0 0 0 0 0 0 0 0 0 0 0 0 0 0 0 0 0 0 0 0 0 0 0 0 0 0 0 0 0 0 0 0 0 0 0 0 0 0 0 0 0 0 0 0 0 0 0 0 0 0 0 0 0 0 0 0 0 0 0 0 0 0 0 0 0 0 0 0 0 0 0 0 0 0 0 0 0 0 0 0 0 0 0 0 0 0 0 0 0 0 0 0 0 0
0 0 0 0 0 0 0 0 0 0 0 0 0 0 0 0 0 0 0 0 0 0 0 0 0 0 0 0 0 0 0 0 0 0 0 0 0 0 0 0 0 0 0 0 0 0 0 0 0 0 0 0 0 0 0 0 0 0 0 0 0 0 0 0 0 0 0 0 0 0 0 0 0 0 0 0 0 0 0 0 0 0 0 0 0 0 0 0 0 0 0 0 0 0 0 0 0
0 0 0 0 0 0 0 0 0 0 0 0 0 0 0 0 0 0 0 0 0 0 0 0 0 0 0 0 0 0 0 0 0 0 0 0 0 0 0 0 0 0 0 0 0 0 0 0 0 0 0 0 0 0 0 0 0 0 0 0 0 0 0 0 0 0 0 0 0 0 0 0 0 0 0 0 0 0 0 0 0 0 0 0 0 0 0 0 0 0 0 0 0 0 0 0 0
0 0 0 0 0 0 0 0 0 0 0 0 0 0 0 0 0 0 0 0 0 0 0 0 0 0 0 0 0 0 0 0 0 0 0 0 0 0 0 0 0 0 0 0 0 0 0 0 0 0 0 0 0 0 0 0 0 0 0 0 0 0 0 0 0 0 0 0 0 0 0 0 0 0 0 0 0 0 0 0 0 0 0 0 0 0 0 0 0 0 0 0 0 0 0 0 0
0 0 0 0 0 0 0 0 0 0 0 0 0 0 0 0 0 0 0 0 0 0 0 0 0 0 0 0 0 0 0 0 0 0 0 0 0 0 0 0 0 0 0 0 0 0 0 0 0 0 0 0 0 0 0 0 0 0 0 0 0 0 0 0 0 0 0 0 0 0 0 0 0 0 0 0 0 0 0 0 0 0 0 0 0 0 0 0 0 0 0 0 0 0 0 0 0
0 0 0 0 0 0 0 0 0 0 0 0 0 0 0 0 0 0 0 0 0 0 0 0 0 0 0 0 0 0 0 0 0 0 0 0 0 0 0 0 0 0 0 0 0 0 0 0 0 0 0 0 0 0 0 0 0 0 0 0 0 0 0 0 0 0 0 0 0 0 0 0 0 0 0 0 0 0 0 0 0 0 0 0 0 0 0 0 0 0 0 0 0 0 0 0 0
0 0 0 0 0 0 0 0 0 0 0 0 0 0 0 0 0 0 0 0 0 0 0 0 0 0 0 0 0 0 0 0 0 0 0 0 0 0 0 0 0 0 0 0 0 0 0 0 0 0 0 0 0 0 0 0 0 0 0 0 0 0 0 0 0 0 0 0 0 0 0 0 0 0 0 0 0 0 0 0 0 0 0 0 0 0 0 0 0 0 0 0 0 0 0 0 0
0 0 0 0 0 0 0 0 0 0 0 0 0 0 0 0 0 0 0 0 0 0 0 0 0 0 0 0 0 0 0 0 0 0 0 0 0 0 0 0 0 0 0 0 0 0 0 0 0 0 0 0 0 0 0 0 0 0 0 0 0 0 0 0 0 0 0 0 0 0 0 0 0 0 0 0 0 0 0 0 0 0 0 0 0 0 0 0 0 0 0 0 0 0 0 0 0
0 0 0 0 0 0 0 0 0 0 0 0 0 0 0 0 0 0 0 0 0 0 0 0 0 0 0 0 0 0 0 0 0 0 0 0 0 0 0 0 0 0 0 0 0 0 0 0 0 0 0 0 0 0 0 0 0 0 0 0 0 0 0 0 0 0 0 0 0 0 0 0 0 0 0 0 0 0 0 0 0 0 0 0 0 0 0 0 0 0 0 0 0 0 0 0 0
0 0 0 0 0 0 0 0 0 0 0 0 0 0 0 0 0 0 0 0 0 0 0 0 0 0 0 0 0 0 0 0 0 0 0 0 0 0 0 0 0 0 0 0 0 0 0 0 0 0 0 0 0 0 0 0 0 0 0 0 0 0 0 0 0 0 0 0 0 0 0 0 0 0 0 0 0 0 0 0 0 0 0 0 0 0 0 0 0 0 0 0 0 0 0 0 0
0 0 0 0 0 0 0 0 0 0 0 0 0 0 0 0 0 0 0 0 0 0 0 0 0 0 0 0 0 0 0 0 0 0 0 0 0 0 0 0 0 0 0 0 0 0 0 0 0 0 0 0 0 0 0 0 0 0 0 0 0 0 0 0 0 0 0 0 0 0 0 0 0 0 0 0 0 0 0 0 0 0 0 0 0 0 0 0 0 0 0 0 0 0 0 0 0
0 0 0 0 0 0 0 0 0 0 0 0 0 0 0 0 0 0 0 0 0 0 0 0 0 0 0 0 0 0 0 0 0 0 0 0 0 0 0 0 0 0 0 0 0 0 0 0 0 0 0 0 0 0 0 0 0 0 0 0 0 0 0 0 0 0 0 0 0 0 0 0 0 0 0 0 0 0 0 0 0 0 0 0 0 0 0 0 0 0 0 0 0 0 0 0 0
0 0 0 0 0 0 0 0 0 0 0 0 0 0 0 0 0 0 0 0 0 0 0 0 0 0 0 0 0 0 0 0 0 0 0 0 0 0 0 0 0 0 0 0 0 0 0 0 0 0 0 0 0 0 0 0 0 0 0 0 0 0 0 0 0 0 0 0 0 0 0 0 0 0 0 0 0 0 0 0 0 0 0 0 0 0 0 0 0 0 0 0 0 0 0 0 0
0 0 0 0 0 0 0 0 0 0 0 0 0 0 0 0 0 0 0 0 0 0 0 0 0 0 0 0 0 0 0 0 0 0 0 0 0 0 0 0 0 0 0 0 0 0 0 0 0 0 0 0 0 0 0 0 0 0 0 0 0 0 0 0 0 0 0 0 0 0 0 0 0 0 0 0 0 0 0 0 0 0 0 0 0 0 0 0 0 0 0 0 0 0 0 0 0
0 0 0 0 0 0 0 0 0 0 0 0 0 0 0 0 0 0 0 0 0 0 0 0 0 0 0 0 0 0 0 0 0 0 0 0 0 0 0 0 0 0 0 0 0 0 0 0 0 0 0 0 0 0 0 0 0 0 0 0 0 0 0 0 0 0 0 0 0 0 0 0 0 0 0 0 0 0 0 0 0 0 0 0 0 0 0 0 0 0 0 0 0 0 0 0 0
0 0 0 0 0 0 0 0 0 0 0 0 0 0 0 0 0 0 0 0 0 0 0 0 0 0 0 0 0 0 0 0 0 0 0 0 0 0 0 0 0 0 0 0 0 0 0 0 0 0 0 0 0 0 0 0 0 0 0 0 0 0 0 0 0 0 0 0 0 0 0 0 0 0 0 0 0 0 0 0 0 0 0 0 0 0 0 0 0 0 0 0 0 0 0 0 0
0 0 0 0 0 0 0 0 0 0 0 0 0 0 0 0 0 0 0 0 0 0 0 0 0 0 0 0 0 0 0 0 0 0 0 0 0 0 0 0 0 0 0 0 0 0 0 0 0 0 0 0 0 0 0 0 0 0 0 0 0 0 0 0 0 0 0 0 0 0 0 0 0 0 0 0 0 0 0 0 0 0 0 0 0 0 0 0 0 0 0 0 0 0 0 0 0
0 0 0 0 0 0 0 0 0 0 0 0 0 0 0 0 0 0 0 0 0 0 0 0 0 0 0 0 0 0 0 0 0 0 0 0 0 0 0 0 0 0 0 0 0 0 0 0 0 0 0 0 0 0 0 0 0 0 0 0 0 0 0 0 0 0 0 0 0 0 0 0 0 0 0 0 0 0 0 0 0 0 0 0 0 0 0 0 0 0 0 0 0 0 0 0 0
0 0 0 0 0 0 0 0 0 0 0 0 0 0 0 0 0 0 0 0 0 0 0 0 0 0 0 0 0 0 0 0 0 0 0 0 0 0 0 0 0 0 0 0 0 0 0 0 0 0 0 0 0 0 0 0 0 0 0 0 0 0 0 0 0 0 0 0 0 0 0 0 0 0 0 0 0 0 0 0 0 0 0 0 0 0 0 0 0 0 0 0 0 0 0 0 0
0 0 0 0 0 0 0 0 0 0 0 0 0 0 0 0 0 0 0 0 0 0 0 0 0 0 0 0 0 0 0 0 0 0 0 0 0 0 0 0 0 0 0 0 0 0 0 0 0 0 0 0 0 0 0 0 0 0 0 0 0 0 0 0 0 0 0 0 0 0 0 0 0 0 0 0 0 0 0 0 0 0 0 0 0 0 0 0 0 0 0 0 0 0 0 0 0
0 0 0 0 0 0 0 0 0 0 0 0 0 0 0 0 0 0 0 0 0 0 0 0 0 0 0 0 0 0 0 0 0 0 0 0 0 0 0 0 0 0 0 0 0 0 0 0 0 0 0 0 0 0 0 0 0 0 0 0 0 0 0 0 0 0 0 0 0 0 0 0 0 0 0 0 0 0 0 0 0 0 0 0 0 0 0 0 0 0 0 0 0 0 0 0 0
0 0 0 0 0 0 0 0 0 0 0 0 0 0 0 0 0 0 0 0 0 0 0 0 0 0 0 0 0 0 0 0 0 0 0 0 0 0 0 0 0 0 0 0 0 0 0 0 0 0 0 0 0 0 0 0 0 0 0 0 0 0 0 0 0 0 0 0 0 0 0 0 0 0 0 0 0 0 0 0 0 0 0 0 0 0 0 0 0 0 0 0 0 0 0 0 0
0 0 0 0 0 0 0 0 0 0 0 0 0 0 0 0 0 0 0 0 0 0 0 0 0 0 0 0 0 0 0 0 0 0 0 0 0 0 0 0 0 0 0 0 0 0 0 0 0 0 0 0 0 0 0 0 0 0 0 0 0 0 0 0 0 0 0 0 0 0 0 0 0 0 0 0 0 0 0 0 0 0 0 0 0 0 0 0 0 0 0 0 0 0 0 0 0
0 0 0 0 0 0 0 0 0 0 0 0 0 0 0 0 0 0 0 0 0 0 0 0 0 0 0 0 0 0 0 0 0 0 0 0 0 0 0 0 0 0 0 0 0 0 0 0 0 0 0 0 0 0 0 0 0 0 0 0 0 0 0 0 0 0 0 0 0 0 0 0 0 0 0 0 0 0 0 0 0 0 0 0 0 0 0 0 0 0 0 0 0 0 0 0 0
0 0 0 0 0 0 0 0 0 0 0 0 0 0 0 0 0 0 0 0 0 0 0 0 0 0 0 0 0 0 0 0 0 0 0 0 0 0 0 0 0 0 0 0 0 0 0 0 0 0 0 0 0 0 0 0 0 0 0 0 0 0 0 0 0 0 0 0 0 0 0 0 0 0 0 0 0 0 0 0 0 0 0 0 0 0 0 0 0 0 0 0 0 0 0 0 0
0 0 0 0 0 0 0 0 0 0 0 0 0 0 0 0 0 0 0 0 0 0 0 0 0 0 0 0 0 0 0 0 0 0 0 0 0 0 0 0 0 0 0 0 0 0 0 0 0 0 0 0 0 0 0 0 0 0 0 0 0 0 0 0 0 0 0 0 0 0 0 0 0 0 0 0 0 0 0 0 0 0 0 0 0 0 0 0 0 0 0 0 0 0 0 0 0
0 0 0 0 0 0 0 0 0 0 0 0 0 0 0 0 0 0 0 0 0 0 0 0 0 0 0 0 0 0 0 0 0 0 0 0 0 0 0 0 0 0 0 0 0 0 0 0 0 0 0 0 0 0 0 0 0 0 0 0 0 0 0 0 0 0 0 0 0 0 0 0 0 0 0 0 0 0 0 0 0 0 0 0 0 0 0 0 0 0 0 0 0 0 0 0 0
0 0 0 0 0 0 0 0 0 0 0 0 0 0 0 0 0 0 0 0 0 0 0 0 0 0 0 0 0 0 0 0 0 0 0 0 0 0 0 0 0 0 0 0 0 0 0 0 0 0 0 0 0 0 0 0 0 0 0 0 0 0 0 0 0 0 0 0 0 0 0 0 0 0 0 0 0 0 0 0 0 0 0 0 0 0 0 0 0 0 0 0 0 0 0 0 0
0 0 0 0 0 0 0 0 0 0 0 0 0 0 0 0 0 0 0 0 0 0 0 0 0 0 0 0 0 0 0 0 0 0 0 0 0 0 0 0 0 0 0 0 0 0 0 0 0 0 0 0 0 0 0 0 0 0 0 0 0 0 0 0 0 0 0 0 0 0 0 0 0 0 0 0 0 0 0 0 0 0 0 0 0 0 0 0 0 0 0 0 0 0 0 0 0
0 0 0 0 0 0 0 0 0 0 0 0 0 0 0 0 0 0 0 0 0 0 0 0 0 0 0 0 0 0 0 0 0 0 0 0 0 0 0 0 0 0 0 0 0 0 0 0 0 0 0 0 0 0 0 0 0 0 0 0 0 0 0 0 0 0 0 0 0 0 0 0 0 0 0 0 0 0 0 0 0 0 0 0 0 0 0 0 0 0 0 0 0 0 0 0 0
0 0 0 0 0 0 0 0 0 0 0 0 0 0 0 0 0 0 0 0 0 0 0 0 0 0 0 0 0 0 0 0 0 0 0 0 0 0 0 0 0 0 0 0 0 0 0 0 0 0 0 0 0 0 0 0 0 0 0 0 0 0 0 0 0 0 0 0 0 0 0 0 0 0 0 0 0 0 0 0 0 0 0 0 0 0 0 0 0 0 0 0 0 0 0 0 0
0 0 0 0 0 0 0 0 0 0 0 0 0 0 0 0 0 0 0 0 0 0 0 0 0 0 0 0 0 0 0 0 0 0 0 0 0 0 0 0 0 0 0 0 0 0 0 0 0 0 0 0 0 0 0 0 0 0 0 0 0 0 0 0 0 0 0 0 0 0 0 0 0 0 0 0 0 0 0 0 0 0 0 0 0 0 0 0 0 0 0 0 0 0 0 0 0
0 0 0 0 0 0 0 0 0 0 0 0 0 0 0 0 0 0 0 0 0 0 0 0 0 0 0 0 0 0 0 0 0 0 0 0 0 0 0 0 0 0 0 0 0 0 0 0 0 0 0 0 0 0 0 0 0 0 0 0 0 0 0 0 0 0 0 0 0 0 0 0 0 0 0 0 0 0 0 0 0 0 0 0 0 0 0 0 0 0 0 0 0 0 0 0 0
0 0 0 0 0 0 0 0 0 0 0 0 0 0 0 0 0 0 0 0 0 0 0 0 0 0 0 0 0 0 0 0 0 0 0 0 0 0 0 0 0 0 0 0 0 0 0 0 0 0 0 0 0 0 0 0 0 0 0 0 0 0 0 0 0 0 0 0 0 0 0 0 0 0 0 0 0 0 0 0 0 0 0 0 0 0 0 0 0 0 0 0 0 0 0 0 0
0 0 0 0 0 0 0 0 0 0 0 0 0 0 0 0 0 0 0 0 0 0 0 0 0 0 0 0 0 0 0 0 0 0 0 0 0 0 0 0 0 0 0 0 0 0 0 0 0 0 0 0 0 0 0 0 0 0 0 0 0 0 0 0 0 0 0 0 0 0 0 0 0 0 0 0 0 0 0 0 0 0 0 0 0 0 0 0 0 0 0 0 0 0 0 0 0
0 0 0 0 0 0 0 0 0 0 0 0 0 0 0 0 0 0 0 0 0 0 0 0 0 0 0 0 0 0 0 0 0 0 0 0 0 0 0 0 0 0 0 0 0 0 0 0 0 0 0 0 0 0 0 0 0 0 0 0 0 0 0 0 0 0 0 0 0 0 0 0 0 0 0 0 0 0 0 0 0 0 0 0 0 0 0 0 0 0 0 0 0 0 0 0 0
0 0 0 0 0 0 0 0 0 0 0 0 0 0 0 0 0 0 0 0 0 0 0 0 0 0 0 0 0 0 0 0 0 0 0 0 0 0 0 0 0 0 0 0 0 0 0 0 0 0 0 0 0 0 0 0 0 0 0 0 0 0 0 0 0 0 0 0 0 0 0 0 0 0 0 0 0 0 0 0 0 0 0 0 0 0 0 0 0 0 0 0 0 0 0 0 0
0 0 0 0 0 0 0 0 0 0 0 0 0 0 0 0 0 0 0 0 0 0 0 0 0 0 0 0 0 0 0 0 0 0 0 0 0 0 0 0 0 0 0 0 0 0 0 0 0 0 0 0 0 0 0 0 0 0 0 0 0 0 0 0 0 0 0 0 0 0 0 0 0 0 0 0 0 0 0 0 0 0 0 0 0 0 0 0 0 0 0 0 0 0 0 0 0
0 0 0 0 0 0 0 0 0 0 0 0 0 0 0 0 0 0 0 0 0 0 0 0 0 0 0 0 0 0 0 0 0 0 0 0 0 0 0 0 0 0 0 0 0 0 0 0 0 0 0 0 0 0 0 0 0 0 0 0 0 0 0 0 0 0 0 0 0 0 0 0 0 0 0 0 0 0 0 0 0 0 0 0 0 0 0 0 0 0 0 0 0 0 0 0 0
0 0 0 0 0 0 0 0 0 0 0 0 0 0 0 0 0 0 0 0 0 0 0 0 0 0 0 0 0 0 0 0 0 0 0 0 0 0 0 0 0 0 0 0 0 0 0 0 0 0 0 0 0 0 0 0 0 0 0 0 0 0 0 0 0 0 0 0 0 0 0 0 0 0 0 0 0 0 0 0 0 0 0 0 0 0 0 0 0 0 0 0 0 0 0 0 0
0 0 0 0 0 0 0 0 0 0 0 0 0 0 0 0 0 0 0 0 0 0 0 0 0 0 0 0 0 0 0 0 0 0 0 0 0 0 0 0 0 0 0 0 0 0 0 0 0 0 0 0 0 0 0 0 0 0 0 0 0 0 0 0 0 0 0 0 0 0 0 0 0 0 0 0 0 0 0 0 0 0 0 0 0 0 0 0 0 0 0 0 0 0 0 0 0
0 0 0 0 0 0 0 0 0 0 0 0 0 0 0 0 0 0 0 0 0 0 0 0 0 0 0 0 0 0 0 0 0 0 0 0 0 0 0 0 0 0 0 0 0 0 0 0 0 0 0 0 0 0 0 0 0 0 0 0 0 0 0 0 0 0 0 0 0 0 0 0 0 0 0 0 0 0 0 0 0 0 0 0 0 0 0 0 0 0 0 0 0 0 0 0 0
0 0 0 0 0 0 0 0 0 0 0 0 0 0 0 0 0 0 0 0 0 0 0 0 0 0 0 0 0 0 0 0 0 0 0 0 0 0 0 0 0 0 0 0 0 0 0 0 0 0 0 0 0 0 0 0 0 0 0 0 0 0 0 0 0 0 0 0 0 0 0 0 0 0 0 0 0 0 0 0 0 0 0 0 0 0 0 0 0 0 0 0 0 0 0 0 0
Wind_Speed
2 2 3 1 1 1 1 1 1 2 2 3 3 2 5 3 3 5 6 2 7 2 6 9 10 6 7 9 15 11 9 2 3 4 4 1 4 6 11 13 11 11 10 8 6 5 8 11 13 14 15 16 16 16 17 17 16 16 16 15 15 15 16 15 15 14 15 15 15 14 14 14 13 12 10 10 10 10 10 12 12 12 13 13 14 14 15 15 15 15 15 14 14 14 12 13 14
2 3 3 0 0 1 1 2 1 1 2 2 9 1 4 3 3 6 6 2 4 5 5 13 14 17 19 18 14 13 12 9 4 5 6 9 10 8 10 13 13 13 9 8 5 4 6 9 13 13 15 16 16 16 17 17 17 17 16 15 15 15 16 15 15 14 14 14 14 14 14 14 13 12 10 10 9 9 9 9 12 12 13 13 12 13 12 14 15 15 15 15 14 13 13 13 13
2 4 4 3 1 0 1 1 1 1 2 2 8 5 3 7 5 6 7 7 13 10 9 10 10 6 8 4 9 5 4 8 15 11 8 11 12 7 8 9 9 10 10 7 6 5 5 8 12 13 14 15 16 17 17 17 17 17 16 15 14 15 16 15 15 14 14 14 14 14 14 14 13 12 11 10 9 9 9 9 10 11 12 12 11 11 13 14 14 15 16 16 15 13 12 11 11
2 1 1 1 0 1 1 1 2 4 2 8 5 5 3 3 4 4 5 6 12 9 5 3 6 6 6 13 10 11 8 7 7 11 9 7 6 10 10 9 8 7 7 7 6 6 5 9 12 13 13 14 16 16 17 17 17 17 16 16 15 15 16 15 15 14 14 14 14 14 13 13 13 12 12 11 10 9 9 8 8 10 10 10 11 13 14 13 15 15 16 15 13 12 12 10 10
1 0 2 0 2 1 1 1 2 3 4 4 5 3 3 4 3 4 2 3 3 10 7 6 7 3 7 7 2 2 5 8 9 5 6 6 11 12 12 11 9 8 8 7 6 6 7 11 12 12 13 15 15 16 16 17 17 16 16 16 15 15 16 15 15 15 15 15 14 13 13 13 12 12 12 11 10 9 9 11 12 11 11 9 11 14 13 13 13 14 14 14 12 10 11 10 9
1 0 0 2 0 1 1 1 1 3 10 3 3 3 3 10 5 5 1 3 4 9 9 4 8 4 5 2 1 5 12 7 8 6 10 9 12 14 14 11 10 9 8 7 6 6 7 11 11 12 13 14 15 16 16 16 17 16 16 16 15 16 15 15 15 15 16 15 14 14 13 13 13 12 12 11 10 11 11 11 12 12 12 12 13 14 14 13 14 13 13 13 11 9 9 10 8
1 3 1 0 2 1 4 2 3 5 13 6 5 8 6 9 6 3 3 4 8 8 10 12 15 11 10 2 5 3 2 9 8 8 7 13 13 11 11 11 11 10 9 8 6 7 9 11 12 12 13 14 15 15 16 16 17 16 15 16 16 15 15 15 15 15 15 15 14 14 13 13 13 12 12 11 11 11 11 11 13 13 12 13 14 14 13 13 13 13 13 13 12 9 7 7 7
0 2 1 2 0 1 0 2 6 5 8 4 2 5 6 8 8 3 1 1 3 3 3 7 4 9 4 4 6 4 6 4 13 13 14 13 12 10 10 11 11 10 10 8 7 7 13 12 12 12 12 12 14 14 15 15 16 16 15 16 16 16 15 15 15 14 14 14 14 14 13 13 13 12 12 12 11 11 12 12 13 12 12 13 13 13 14 14 14 13 13 12 11 10 7 5 5
0 1 1 2 0 1 1 4 7 2 7 10 10 8 11 5 12 3 2 0 10 9 7 5 5 11 1 9 6 6 9 13 15 16 14 14 12 12 10 11 12 10 10 8 7 7 7 12 12 12 12 11 13 14 14 14 15 16 16 16 15 15 15 15 15 15 14 13 12 12 12 12 11 11 10 11 12 11 11 12 11 12 13 12 13 13 14 13 13 13 13 12 10 10 7 4 4
0 1 1 1 2 2 0 7 1 6 3 5 8 14 12 5 6 2 4 8 9 6 2 2 4 11 11 13 8 5 8 14 14 11 11 11 11 10 11 12 12 13 10 9 8 7 7 14 12 12 11 11 11 12 13 14 14 15 15 15 15 14 14 15 14 14 14 13 12 11 11 10 10 10 10 11 12 11 11 11 10 12 12 12 12 13 13 12 12 12 12 11 10 9 7 4 2
2 1 1 1 0 2 4 6 4 7 6 6 10 14 14 9 4 1 2 7 8 8 8 15 13 13 8 6 3 2 12 13 16 14 12 11 10 11 12 12 13 13 13 11 9 7 7 8 16 11 11 11 11 11 12 13 13 14 14 14 14 14 14 14 14 14 14 12 12 11 11 10 10 10 10 11 10 10 10 10 10 12 12 12 12 11 12 12 12 11 11 10 9 8 6 4 2
1 1 1 1 2 3 5 2 5 8 8 7 6 5 3 6 1 2 4 9 5 12 9 4 5 13 10 6 2 3 8 10 12 12 11 10 9 10 11 9 11 12 13 12 10 8 8 8 8 13 12 11 11 12 12 12 13 13 13 13 14 14 14 14 13 14 13 12 12 11 11 10 10 10 10 10 9 9 9 10 10 11 12 12 12 11 11 11 11 11 10 9 9 7 5 4 2
1 0 1 1 2 1 6 1 7 6 4 6 3 3 2 7 4 5 4 6 5 5 3 5 18 4 5 4 3 2 8 11 10 11 9 8 9 9 8 9 11 13 12 11 11 10 9 8 8 8 10 14 12 11 11 11 12 12 12 13 13 13 13 13 13 13 13 12 12 11 11 10 10 10 10 10 10 9 9 10 10 10 12 12 11 11 11 11 11 10 9 8 7 6 4 3 3
3 3 2 3 0 2 5 4 4 3 6 5 5 4 8 1 1 4 8 8 4 4 4 11 10 14 9 6 2 4 7 13 14 11 10 9 8 9 10 9 10 13 13 12 11 10 9 8 8 8 9 9 8 10 11 11 11 12 12 12 12 12 12 12 12 12 12 12 12 12 11 11 10 10 10 10 10 10 9 9 10 11 12 11 11 10 10 10 10 9 9 7 6 4 3 2 3
3 0 1 1 3 1 4 1 3 2 8 4 4 2 4 4 1 4 14 9 4 8 8 2 8 11 6 10 1 6 8 14 15 12 11 10 9 8 9 9 10 11 11 11 10 10 9 8 7 7 7 6 6 6 6 10 13 12 12 10 6 11 11 11 11 11 11 11 11 11 10 10 10 10 10 10 10 10 10 9 9 10 11 11 10 9 9 9 8 8 8 7 6 4 3 1 1
4 1 1 1 4 2 6 1 1 1 4 1 5 2 4 4 2 2 1 8 3 4 9 5 5 4 12 11 15 12 12 12 12 13 13 12 9 7 8 8 8 9 9 10 9 8 8 8 7 7 7 7 6 6 8 10 13 16 14 8 8 7 9 8 7 7 9 10 10 10 10 7 5 5 9 9 10 11 10 8 10 10 10 10 9 9 9 8 7 7 7 6 6 5 3 3 1
1 1 1 1 8 3 4 2 1 1 5 4 11 2 2 2 4 5 4 7 13 3 1 1 0 6 18 7 14 14 11 13 14 14 14 11 9 7 7 6 6 6 6 8 8 8 8 8 8 6 6 6 5 4 5 5 9 13 9 13 11 10 11 11 8 6 4 4 4 6 9 5 2 3 3 2 10 9 10 10 10 10 11 10 10 9 9 8 7 7 6 5 5 5 5 4 3
1 1 2 6 6 5 2 0 2 3 5 8 7 4 4 3 4 3 7 10 9 7 9 7 10 8 7 10 13 14 14 17 16 16 13 11 8 8 7 7 8 8 8 7 6 7 7 7 7 6 6 6 5 4 4 6 8 11 10 9 7 9 9 10 8 9 9 2 10 9 1 1 3 3 2 4 2 2 7 11 10 10 10 10 10 8 9 7 7 6 5 5 4 4 5 1 1
3 1 2 9 3 4 1 0 4 3 6 8 5 4 1 1 2 0 6 4 10 10 6 8 13 10 11 13 13 14 14 14 15 15 15 13 10 10 9 8 9 9 8 7 6 8 7 7 6 7 7 6 7 4 4 4 9 8 6 5 5 8 10 6 5 7 7 2 10 3 3 1 2 2 2 3 2 3 1 3 7 9 8 10 10 10 8 7 6 5 6 5 3 3 1 1 2
4 3 5 6 4 4 4 3 6 4 3 3 5 4 2 1 2 1 5 5 11 12 9 4 12 13 12 11 12 13 14 14 15 15 14 13 10 11 9 9 8 10 10 10 9 7 8 8 9 8 8 6 6 4 4 5 5 6 5 3 5 7 6 6 5 5 3 2 10 6 3 2 0 1 3 5 7 1 1 1 4 3 8 9 10 7 9 8 8 7 6 5 3 0 1 2 3
2 2 4 5 4 3 6 4 4 7 3 0 4 4 5 6 3 2 7 8 2 7 15 17 15 16 13 13 14 12 14 14 14 14 13 11 9 7 8 9 9 9 10 9 7 9 9 9 9 9 8 7 7 7 6 5 4 5 4 5 7 6 4 3 4 6 5 3 7 8 6 4 3 2 0 1 2 0 2 2 1 2 3 1 3 3 4 4 5 3 3 3 3 2 1 3 2
0 5 6 8 3 2 10 7 6 6 6 1 1 2 3 6 4 1 5 9 8 10 9 15 20 19 18 16 12 10 13 14 14 13 14 13 12 10 6 4 5 5 6 9 9 9 10 10 9 9 8 7 8 7 7 7 7 5 5 5 6 5 5 5 5 4 5 3 3 5 6 5 4 3 1 5 4 2 2 3 3 2 1 2 3 3 3 4 4 4 4 4 4 2 3 3 3
4 5 5 7 6 4 4 1 3 3 3 2 1 1 0 0 2 2 1 9 8 9 12 16 20 20 18 16 14 11 11 12 13 14 13 12 10 9 10 9 9 8 7 8 8 7 7 5 6 7 5 3 3 3 4 6 5 1 1 3 4 3 3 3 3 4 4 4 3 5 5 4 4 1 4 2 8 3 1 4 2 3 3 4 4 5 4 5 5 5 5 5 3 3 3 3 3
5 8 5 8 6 11 10 4 6 4 4 2 2 0 1 1 2 2 0 2 6 8 13 13 13 12 14 15 10 13 12 12 11 12 15 14 12 12 12 11 7 7 8 8 7 7 6 6 5 6 8 2 4 5 7 10 7 1 4 2 3 6 6 6 6 7 5 5 4 4 6 5 5 4 5 4 3 3 5 3 5 4 4 4 4 4 5 4 5 5 5 4 4 3 3 3 3
5 7 7 7 5 7 8 6 4 5 6 5 1 3 6 2 2 1 0 2 8 10 12 14 14 14 10 11 12 9 9 7 7 6 5 8 10 10 10 8 8 8 8 8 6 6 6 5 8 9 6 4 4 3 9 10 8 6 2 2 2 7 7 7 8 6 6 5 3 4 7 7 5 4 5 6 4 4 5 5 5 6 5 5 5 5 6 6 5 5 5 5 5 5 4 4 3
5 12 7 7 6 5 5 5 3 5 4 4 1 4 6 1 6 3 1 3 6 11 11 14 15 15 14 12 11 11 9 7 6 7 10 9 9 10 9 9 8 8 9 9 8 6 7 8 10 11 6 7 5 4 8 10 10 9 5 3 3 5 6 7 5 6 7 5 4 3 5 5 5 6 5 6 7 9 7 7 6 5 4 5 5 6 5 5 5 3 3 4 4 3 3 4 3
3 4 5 10 11 7 3 1 3 5 2 2 2 3 4 1 7 2 3 4 10 11 11 11 15 15 13 11 8 5 8 7 7 7 7 8 9 10 9 9 10 9 10 9 8 6 7 7 5 8 8 7 6 5 6 10 9 9 9 8 11 10 6 5 4 6 7 6 6 7 6 5 5 5 6 6 7 8 7 6 7 6 6 5 5 4 3 3 3 4 4 4 3 2 2 3 5
5 6 4 4 3 2 3 3 5 1 3 2 4 5 3 2 3 8 8 7 13 16 12 13 10 12 12 11 8 5 6 6 8 9 12 10 10 9 10 10 9 9 8 9 8 8 7 7 5 5 5 2 4 4 2 6 9 10 11 10 8 6 3 6 5 5 7 3 6 7 7 6 4 5 6 6 7 6 6 5 5 5 5 4 3 2 2 2 1 2 2 1 2 3 3 4 4
7 3 4 5 4 5 0 1 4 0 2 3 1 1 5 2 3 10 12 10 8 14 14 13 12 10 10 10 8 6 6 7 6 6 5 8 7 7 10 7 8 11 5 7 10 10 9 6 6 3 4 4 3 3 1 3 5 9 9 8 6 5 5 4 7 6 2 1 5 3 8 8 2 5 5 7 5 6 6 7 7 7 6 4 2 3 2 2 2 3 3 2 3 4 5 4 4
5 1 2 3 4 4 7 1 4 4 2 1 4 3 9 6 3 8 12 12 10 7 11 9 8 8 9 10 9 8 7 5 5 4 3 0 4 5 6 13 13 10 1 3 10 10 8 6 6 5 4 4 4 5 4 6 6 7 7 7 7 6 5 5 6 5 2 2 8 10 8 8 1 1 7 2 0 4 6 7 7 6 5 4 3 2 3 3 4 4 3 3 4 4 5 3 4
1 3 2 0 2 7 3 2 2 3 4 3 4 4 9 5 2 10 11 14 15 12 9 10 9 10 10 9 9 11 9 7 8 4 4 4 5 4 15 2 10 5 11 3 9 9 8 8 6 5 6 7 7 7 7 6 5 6 5 6 7 7 4 4 5 2 6 3 5 6 8 6 6 7 2 0 2 1 2 5 5 5 5 5 4 3 5 4 5 5 4 6 4 4 4 3 2
1 3 3 3 2 9 7 4 2 7 3 5 5 4 11 9 6 10 14 13 14 14 13 11 11 11 12 10 11 11 9 6 7 7 9 9 6 5 12 12 12 11 8 5 10 10 10 9 9 7 7 8 7 8 7 7 6 5 5 5 5 4 5 5 2 2 2 3 6 7 5 7 8 6 2 3 0 2 2 4 4 4 5 5 4 3 4 5 4 4 2 6 6 3 5 3 2
4 2 3 3 1 5 9 5 6 9 5 1 10 6 3 7 7 12 15 15 13 12 11 9 12 14 14 12 12 10 9 5 8 10 11 8 7 5 6 9 13 13 10 10 9 9 9 8 10 9 8 9 7 6 6 6 6 4 4 5 4 5 6 3 2 0 2 2 5 6 7 5 2 2 4 3 1 2 5 5 4 4 4 5 4 4 4 3 4 5 3 2 4 4 4 3 1
5 2 2 2 4 4 4 8 5 6 7 6 6 6 4 2 4 7 11 15 11 12 12 11 11 13 11 10 11 12 11 10 11 11 11 9 7 6 6 8 6 6 7 9 10 11 10 8 8 8 6 7 7 6 5 5 5 4 5 6 5 5 6 6 5 2 2 4 4 3 5 3 4 1 2 1 2 1 3 5 4 3 4 5 4 4 4 3 3 3 4 2 3 5 3 4 3
2 4 2 6 2 5 11 5 5 6 7 11 7 6 10 3 5 6 10 18 16 15 15 13 10 10 9 8 11 12 13 13 12 10 11 9 8 8 8 8 6 4 7 8 7 8 8 8 8 7 6 6 6 5 4 4 5 6 4 6 7 7 6 6 7 4 4 2 1 1 1 3 2 3 3 3 4 2 3 3 5 3 3 3 4 4 4 4 3 2 4 3 2 2 4 3 3
5 4 4 2 3 6 5 11 12 9 6 10 8 10 8 3 3 5 2 16 17 16 12 11 10 10 9 9 11 12 10 9 10 11 12 10 9 9 8 9 7 6 8 8 9 8 8 8 6 6 6 6 5 4 4 4 5 6 7 6 7 6 5 6 5 8 9 5 3 2 4 5 3 4 5 5 4 4 3 2 4 4 4 4 5 5 4 4 4 3 3 4 4 2 1 2 3
5 3 2 3 3 7 6 10 6 10 7 9 10 9 2 4 6 6 1 2 7 11 12 12 12 12 11 11 12 10 11 13 11 14 14 14 13 11 10 9 8 6 8 10 9 9 10 9 9 7 5 5 5 5 4 4 4 4 5 6 6 4 6 5 7 6 6 6 7 4 1 2 7 6 6 5 5 5 4 3 2 3 4 4 3 3 3 4 3 3 3 2 3 2 1 1 1
4 0 2 6 1 6 10 7 0 6 8 5 1 3 0 2 3 5 1 5 10 14 12 13 14 12 11 11 9 10 8 4 9 8 11 13 12 12 10 9 8 9 8 10 11 10 9 9 9 7 5 5 5 5 5 4 3 6 7 7 6 5 6 7 6 6 6 6 6 5 3 3 3 5 4 4 5 6 6 6 4 3 3 4 3 3 3 4 4 3 2 2 2 1 1 0 0
0 0 0 3 6 3 9 3 1 1 3 2 0 4 4 4 5 5 2 6 5 13 19 16 14 10 8 9 10 10 9 10 8 9 11 14 14 13 11 10 9 12 12 12 11 10 10 9 9 8 7 6 6 5 4 3 2 4 6 4 8 4 2 4 6 4 5 7 5 4 5 4 3 3 3 4 5 4 5 6 5 5 4 5 5 3 3 3 4 4 3 4 3 4 2 2 5
0 3 2 4 2 3 6 8 4 4 2 3 4 1 5 3 1 4 1 8 4 6 12 15 17 17 16 16 16 15 13 13 12 13 14 13 12 12 11 11 12 10 11 11 12 13 10 9 9 8 8 7 6 4 3 2 5 6 6 7 5 6 5 4 5 4 5 7 6 5 5 5 5 4 3 3 3 4 5 5 3 3 4 4 5 5 3 3 3 3 2 2 3 5 2 1 4
2 1 2 1 0 3 2 5 5 3 3 3 3 4 5 4 3 1 4 2 6 4 3 7 10 16 19 16 13 18 18 16 15 12 10 11 10 11 16 14 11 11 11 12 13 12 9 12 11 10 9 8 5 4 5 7 9 9 8 8 8 8 6 6 5 5 4 4 4 6 4 4 5 4 3 4 4 4 3 4 4 3 3 3 3 4 4 2 2 2 3 4 4 4 3 1 1
2 3 6 5 3 3 7 4 3 5 5 3 3 2 3 3 3 3 2 2 8 5 7 11 12 4 5 10 14 11 14 17 20 19 16 15 15 12 9 12 12 11 12 12 13 13 12 11 11 10 7 6 5 5 8 8 9 10 9 9 8 7 6 4 4 4 4 4 4 2 4 4 5 5 5 5 4 5 5 3 3 3 3 3 3 2 2 1 0 1 3 3 3 2 4 2 3
0 6 5 5 4 4 4 6 2 1 1 4 2 1 3 6 6 4 0 0 4 4 9 9 9 8 8 12 12 12 12 8 5 6 7 11 12 12 10 12 12 11 9 8 10 11 12 12 11 10 8 6 6 6 8 9 9 9 9 9 9 8 8 1 2 4 5 3 4 5 4 4 5 6 5 5 5 6 6 5 5 5 4 3 3 4 3 3 3 0 1 1 2 4 4 3 5
2 4 3 4 4 2 2 3 3 3 2 2 3 4 2 3 9 4 2 4 3 5 4 1 7 8 10 10 13 14 14 14 14 14 14 13 13 12 13 11 11 11 7 7 9 10 12 12 11 9 8 7 7 8 7 10 10 8 8 7 7 8 7 7 5 4 4 4 6 4 4 4 5 5 6 6 6 6 6 6 6 6 6 5 5 4 4 3 6 4 0 1 3 3 4 5 3
5 5 6 5 0 3 4 6 2 1 0 6 2 1 1 2 7 4 2 4 1 5 6 6 10 14 13 14 14 16 16 17 15 12 11 9 10 9 6 7 7 9 8 10 11 11 11 11 11 10 10 9 8 9 9 10 11 10 10 8 6 5 8 7 5 5 5 5 5 4 5 4 5 5 5 6 6 6 6 6 6 6 6 5 5 5 4 5 6 5 4 6 6 5 4 3 4
4 4 1 0 1 3 4 3 3 2 1 5 5 2 2 4 5 7 2 0 4 5 8 5 7 13 13 13 9 3 2 2 3 6 8 8 7 6 6 5 5 10 9 7 6 8 9 9 11 11 10 10 10 9 9 9 10 9 9 8 9 7 7 6 6 6 5 4 6 5 4 4 4 5 5 5 6 6 6 7 6 6 5 5 6 6 6 6 6 6 5 6 6 8 5 6 6
3 1 3 1 6 5 2 5 3 3 0 6 6 4 2 2 4 6 3 2 1 2 4 1 4 7 8 8 9 8 7 4 4 5 4 3 1 0 1 4 4 3 5 6 6 8 9 10 11 12 11 10 10 10 9 10 9 9 9 9 10 10 9 8 7 6 5 4 6 4 5 4 4 5 5 5 5 5 5 5 6 5 5 5 6 6 5 5 5 6 5 6 6 7 6 6 6
2 1 2 1 7 7 6 5 4 2 1 5 2 1 2 2 3 6 6 6 5 6 9 5 4 7 9 7 8 8 7 6 6 5 5 5 4 4 5 4 4 5 5 7 7 7 10 11 11 12 9 9 9 9 9 9 8 8 9 10 10 10 10 8 9 9 7 7 6 6 4 5 4 4 4 5 4 5 6 5 5 5 5 5 5 5 5 5 5 5 6 6 5 5 5 7 6
6 5 7 6 0 4 2 3 2 2 4 3 0 1 3 1 5 5 6 6 1 6 9 8 7 6 5 5 7 7 7 8 7 6 6 6 6 6 6 6 5 6 8 9 10 10 9 10 12 13 10 9 10 9 9 9 8 8 9 10 9 9 9 9 9 9 7 7 7 6 6 7 5 5 4 5 4 5 6 6 5 6 5 4 5 5 5 5 5 6 6 5 5 6 5 6 7
4 5 4 5 1 1 1 3 1 2 5 4 2 3 1 3 5 4 4 4 3 10 6 6 10 9 9 7 4 4 6 7 7 6 6 5 5 6 6 7 8 7 8 10 11 9 8 9 10 13 11 7 7 7 8 9 8 8 9 10 9 9 8 8 9 9 7 7 8 8 8 8 7 7 6 6 5 4 5 5 5 5 5 4 5 5 5 5 5 6 5 6 5 4 5 6 6
2 1 8 8 6 4 2 2 3 5 6 3 4 2 3 1 3 4 3 0 1 7 11 10 9 9 7 6 7 7 8 5 5 5 4 3 1 2 6 8 9 9 10 11 10 9 5 3 4 5 11 12 12 12 12 7 4 3 8 9 10 8 9 8 9 9 8 8 7 8 8 7 8 7 7 5 4 5 5 5 5 5 5 5 5 5 5 5 5 5 5 5 5 4 5 6 5
2 3 6 5 5 6 3 6 6 2 1 2 2 2 4 3 5 4 3 7 3 9 12 14 11 9 8 8 6 6 6 6 5 6 4 3 2 1 1 4 5 7 9 9 6 2 6 5 7 11 12 12 13 13 10 2 8 0 4 9 11 9 8 8 8 7 8 9 9 9 9 8 8 8 6 6 5 6 5 5 5 5 5 5 5 6 5 6 5 6 4 4 4 2 6 5 4
3 2 1 3 5 7 2 1 0 3 4 2 1 1 4 4 3 2 6 6 6 8 11 12 11 8 9 9 6 5 5 5 5 5 4 3 4 4 1 1 3 5 3 3 8 10 11 11 8 7 7 6 10 13 15 15 13 3 6 10 9 7 7 10 10 10 10 8 9 8 8 8 8 8 7 6 7 5 5 5 5 4 4 5 5 5 5 5 5 5 5 4 4 3 5 4 4
3 3 5 1 4 5 5 2 1 1 3 4 0 4 2 1 4 5 2 2 6 11 9 11 9 10 10 8 7 7 7 6 6 5 4 4 2 3 4 5 5 6 9 11 10 9 10 9 11 10 8 10 9 9 7 6 3 8 8 10 10 8 8 9 9 9 8 8 7 5 4 6 8 9 8 7 7 7 6 6 5 4 4 4 5 4 5 5 5 5 5 5 4 4 4 3 3
4 3 2 4 0 0 4 4 0 0 0 2 2 1 0 3 2 4 2 8 3 3 7 9 8 6 8 7 7 6 6 6 6 6 6 7 7 6 5 5 6 8 9 11 12 11 11 11 13 11 10 10 13 12 13 12 14 12 8 10 9 6 4 7 9 8 6 6 8 7 7 8 6 7 9 8 8 8 7 6 6 5 4 4 3 5 4 4 5 5 4 4 4 4 4 4 2
1 2 2 0 4 2 0 3 3 4 2 1 4 3 0 2 2 3 5 4 2 5 2 3 3 3 5 6 6 5 5 5 6 7 7 7 8 7 7 5 6 6 8 8 9 10 13 8 11 13 14 14 11 6 1 1 3 7 9 7 11 11 9 8 10 10 9 8 7 7 7 7 9 7 8 9 9 9 8 8 7 7 6 5 4 4 4 4 4 4 4 5 4 4 4 4 3
7 7 2 1 1 2 4 1 2 3 2 3 1 3 2 4 3 2 5 1 6 4 4 4 4 4 3 2 3 3 3 4 4 7 7 8 7 7 6 5 5 4 3 3 7 10 9 9 11 12 13 9 11 8 8 11 14 14 12 11 12 11 11 9 9 11 11 10 8 8 9 10 7 8 8 9 9 8 8 8 8 7 7 5 5 4 4 4 5 4 3 4 4 4 4 3 4
1 1 2 4 1 1 1 4 2 1 4 1 1 2 4 4 3 5 3 2 5 4 8 5 7 8 8 6 5 5 5 2 5 6 5 6 6 6 6 6 6 6 4 3 1 2 5 10 10 7 6 9 13 13 12 14 13 11 11 12 10 7 8 7 8 12 11 10 9 10 10 7 10 9 9 9 9 8 8 8 7 7 6 5 5 5 5 4 5 4 4 3 5 4 4 4 2
Wind_Direction
347 320 305 350 94 84 60 30 97 288 72 238 263 251 255 246 260 343 289 274 73 340 64 60 61 51 88 107 106 80 24 111 214 134 205 148 113 131 133 128 132 125 127 132 142 146 136 135 135 133 131 129 129 130 131 131 129 127 125 125 123 121 116 114 113 111 108 107 106 103 100 98 93 91 88 89 88 87 94 104 107 109 111 110 107 112 114 113 112 111 109 106 104 104 103 103 106
339 3 351 238 65 91 258 155 110 31 43 1 253 131 252 271 311 278 286 116 110 149 121 90 82 91 101 113 125 92 44 32 58 96 91 113 115 121 135 139 141 131 130 125 121 122 127 129 130 130 130 128 128 131 133 132 132 130 128 127 125 123 120 117 115 113 109 107 105 103 103 100 98 94 89 85 87 91 100 106 108 114 112 114 118 113 111 108 114 112 110 107 103 101 102 103 106
34 14 350 46 57 117 275 34 96 178 93 243 265 211 298 324 254 238 234 116 132 123 91 84 84 73 112 128 46 57 110 87 94 93 101 128 120 124 123 116 117 120 123 120 126 130 123 128 129 129 129 128 129 132 133 133 134 132 130 127 127 125 123 121 117 113 111 108 106 105 104 104 101 99 93 88 82 83 89 101 107 105 111 113 113 114 108 114 110 109 109 107 106 103 97 101 103
62 117 124 54 15 11 77 25 111 131 163 229 303 273 227 259 321 231 239 183 163 142 117 51 57 308 94 68 93 77 100 114 101 123 123 134 121 126 118 113 118 114 111 116 124 128 124 126 125 127 126 127 131 133 134 136 137 134 134 132 131 131 128 124 120 118 115 113 110 109 107 106 105 101 98 91 87 84 79 78 91 99 99 114 119 108 110 112 108 108 106 105 106 109 105 97 97
78 245 125 128 111 24 102 193 161 106 218 203 212 264 269 292 248 243 264 302 47 106 93 121 88 20 63 98 138 96 127 116 128 89 96 85 122 127 129 134 131 122 113 110 113 116 116 120 119 120 126 131 133 134 136 138 138 137 137 136 134 134 131 127 124 121 119 118 116 113 113 111 109 106 101 96 89 82 82 86 89 94 106 104 89 106 113 114 113 108 106 102 109 111 108 103 96
13 80 293 116 173 208 41 24 295 228 235 149 251 212 289 292 286 279 122 19 79 108 121 103 128 163 65 22 61 115 148 137 136 73 118 129 132 135 135 133 123 115 109 105 107 109 114 113 113 120 129 133 135 136 139 140 141 140 140 139 135 135 133 129 127 123 123 122 121 119 120 120 118 114 111 106 99 96 94 93 92 90 87 90 100 109 113 113 112 109 107 108 109 109 112 115 112
347 19 29 33 324 65 149 176 230 222 264 158 237 275 276 286 282 314 334 59 31 64 105 119 122 108 81 109 40 16 64 121 118 143 131 132 130 132 134 127 121 117 115 112 111 110 116 114 115 118 128 133 136 139 141 142 143 142 141 139 136 135 134 131 127 125 125 125 126 127 125 125 122 120 118 113 106 99 96 97 95 92 92 98 103 109 113 113 109 107 110 114 116 114 109 111 110
244 100 284 94 296 53 167 208 241 187 268 149 237 261 260 263 286 257 240 102 144 78 36 114 127 90 33 34 106 301 79 75 113 117 121 124 126 135 134 128 123 120 119 117 114 119 125 117 116 119 123 132 137 139 142 143 143 143 140 138 137 137 135 131 128 128 127 128 129 132 132 130 127 122 121 117 112 105 102 104 104 100 103 104 106 111 112 113 114 117 118 120 122 123 127 121 123
344 83 300 71 311 12 307 248 245 238 279 299 281 249 255 249 262 223 168 98 84 101 119 145 102 86 204 86 72 95 85 106 117 125 126 129 130 138 136 134 127 123 118 116 113 110 113 117 114 117 123 128 136 141 142 143 144 142 140 139 137 136 134 132 131 129 129 131 133 135 136 132 127 123 122 118 114 110 105 105 109 110 108 109 111 114 117 118 121 123 125 125 129 130 132 141 134
332 112 299 154 142 292 278 282 15 256 234 265 268 273 258 226 248 250 96 77 112 98 8 19 118 111 129 100 105 94 117 120 119 114 130 135 135 140 133 128 127 127 123 118 115 114 118 119 113 117 120 124 133 141 144 143 142 141 139 137 136 135 134 134 133 131 131 133 134 135 133 132 127 125 120 118 114 110 112 112 112 117 117 116 116 118 122 123 125 126 126 128 131 132 135 140 136
334 333 184 79 11 276 254 278 267 302 283 289 287 271 257 206 198 69 67 116 127 120 125 96 72 112 106 85 56 57 122 128 128 137 145 138 134 127 126 132 134 134 130 127 122 117 114 119 122 119 124 126 133 141 140 140 140 140 139 138 136 135 135 135 136 135 132 134 136 135 134 134 131 126 122 119 118 117 117 115 114 119 123 125 125 125 126 128 127 128 130 133 131 128 131 150 137
14 330 22 120 207 182 246 203 277 280 285 289 279 293 24 129 138 44 32 96 126 138 162 185 143 120 76 106 107 128 140 133 133 138 136 128 117 114 120 127 132 130 130 128 123 119 124 129 127 133 130 132 139 142 143 140 141 140 138 135 134 134 135 138 137 135 135 137 139 138 138 137 135 130 126 126 128 127 122 121 120 121 126 126 127 130 131 131 131 131 135 135 133 134 152 154 146
152 202 97 101 231 176 252 283 260 279 319 285 245 324 164 85 109 143 119 87 149 157 342 142 138 112 113 121 131 176 149 147 140 139 124 130 124 120 115 121 129 128 127 127 125 130 135 134 133 130 138 143 141 137 138 138 140 136 136 134 131 134 137 138 138 137 140 142 143 142 141 139 138 137 134 135 134 134 129 129 127 126 131 133 135 136 136 135 134 135 137 139 138 141 159 167 129
153 183 125 264 318 246 280 257 281 318 300 265 309 293 311 91 196 131 99 64 41 75 98 129 115 103 97 109 93 152 153 143 143 140 136 128 123 129 134 132 134 133 136 135 134 140 140 140 135 141 145 145 141 137 134 138 140 137 137 135 129 133 136 137 139 141 145 147 148 149 146 142 141 143 145 143 141 138 139 136 131 133 134 138 141 140 138 140 141 142 143 146 141 142 163 187 117
208 201 98 173 279 12 254 179 266 9 291 280 268 3 355 357 27 40 105 96 46 114 94 57 137 98 198 138 183 185 159 142 139 138 127 127 133 134 139 141 138 136 137 136 141 145 144 137 138 142 138 136 133 139 150 149 149 146 116 96 137 135 139 138 143 149 150 154 153 150 147 142 144 148 154 150 146 144 143 140 138 139 140 139 141 142 144 147 150 150 152 150 144 146 192 223 134
197 106 101 187 258 212 273 185 33 8 270 301 274 32 43 346 343 72 19 127 135 128 138 168 251 161 165 174 163 159 144 127 126 121 120 124 127 130 134 133 132 131 135 143 148 148 144 143 148 143 139 137 142 154 162 167 158 133 111 125 154 146 131 133 130 147 152 159 159 154 150 127 124 137 158 160 153 150 146 148 149 148 144 142 142 148 153 155 158 163 163 156 151 164 195 226 190
157 127 279 199 271 191 265 139 256 276 278 302 293 341 96 9 318 54 65 107 132 188 28 13 42 127 156 159 144 139 121 121 122 121 117 119 124 125 124 117 118 122 144 155 152 150 150 151 151 145 132 126 130 138 136 138 119 104 125 155 171 152 146 138 143 132 124 114 116 69 54 68 141 127 197 160 164 160 158 156 154 151 149 147 150 156 157 163 170 174 172 164 166 177 202 218 210
111 192 177 248 220 236 237 117 296 288 316 298 309 335 77 31 336 142 72 65 76 67 65 64 56 53 110 124 132 124 126 125 129 126 127 126 131 134 133 136 140 157 159 157 154 149 152 156 144 121 130 128 127 144 134 128 129 124 158 175 170 154 138 90 29 2 346 83 73 55 24 26 227 155 189 145 124 147 163 158 156 156 153 155 154 156 162 170 181 182 182 181 184 191 210 232 303
145 204 147 239 197 230 222 228 278 324 294 291 277 322 90 157 222 55 92 92 95 72 54 86 85 83 102 117 125 128 127 125 129 130 135 137 143 148 149 151 161 157 157 151 162 168 158 148 143 142 142 148 140 131 128 118 120 150 145 164 139 105 75 78 156 169 187 220 99 122 225 117 270 124 183 115 60 358 317 158 160 158 164 164 160 161 164 173 183 186 192 196 209 226 317 336 327
230 155 245 245 215 243 269 229 271 250 245 303 311 319 44 255 259 62 120 125 108 122 120 76 116 130 132 131 130 135 133 133 133 136 139 140 146 149 152 163 173 167 156 161 167 169 155 162 162 158 157 160 136 150 145 130 125 123 138 130 105 93 123 164 168 171 205 178 121 166 200 190 159 274 208 161 134 133 343 53 16 256 177 168 167 164 171 178 183 189 195 195 197 340 13 339 325
271 143 203 233 220 245 265 227 224 268 272 237 313 305 9 327 340 90 132 92 108 165 159 153 152 145 142 147 147 147 140 139 139 139 137 136 142 145 159 171 174 171 161 151 154 164 164 170 163 162 160 159 151 156 151 142 121 110 123 130 106 123 131 155 181 199 188 177 148 166 167 173 161 174 52 63 68 31 70 8 129 67 343 96 110 178 171 180 180 189 201 175 199 189 200 255 295
327 216 220 229 242 243 259 250 253 264 261 143 201 35 312 319 7 26 162 144 191 190 204 154 149 144 149 158 159 147 146 147 145 140 142 144 147 149 156 169 175 159 153 155 163 160 172 170 165 163 152 166 164 171 162 147 124 123 162 133 127 139 148 190 186 206 184 199 163 160 147 146 159 131 174 93 48 295 23 41 76 49 29 221 156 188 189 171 183 195 193 191 218 198 209 223 238
244 283 274 248 234 220 262 281 255 230 244 301 305 184 25 33 279 281 169 176 210 202 153 152 154 158 156 146 143 150 154 151 151 151 146 142 145 152 161 173 168 165 169 167 154 159 166 149 149 143 134 90 96 139 134 106 82 82 59 110 123 132 166 213 200 216 205 166 178 160 151 128 109 132 95 88 139 148 231 128 154 163 183 216 194 163 200 189 186 192 195 202 204 200 227 236 233
203 248 253 262 223 229 250 262 234 211 147 267 221 26 300 203 354 284 90 308 181 141 141 143 133 128 137 142 155 155 156 157 162 159 155 155 156 161 165 175 166 155 163 160 154 153 164 140 121 88 65 38 153 177 122 71 78 65 254 207 127 167 165 194 205 208 205 182 179 155 140 147 156 155 136 185 140 142 152 160 151 199 169 219 221 190 191 198 197 199 199 198 195 209 217 243 234
207 254 243 254 249 232 232 232 225 263 240 238 217 300 267 194 202 108 307 132 129 131 130 129 130 132 134 144 147 147 154 161 154 154 154 155 159 160 168 164 160 160 152 149 144 139 144 108 84 105 131 174 205 144 112 125 142 163 188 188 201 186 178 185 194 196 205 190 159 150 163 158 167 174 159 161 148 153 166 161 175 207 172 208 217 203 189 193 200 199 202 207 202 202 204 233 223
223 227 243 252 255 269 249 254 249 211 255 240 328 279 276 107 87 25 42 97 125 123 126 131 134 143 152 158 153 155 157 160 162 169 173 165 159 157 166 165 166 162 147 142 147 143 128 124 136 147 149 172 192 148 139 135 143 153 178 173 297 243 195 205 182 192 208 172 142 171 183 170 162 174 182 157 158 183 181 170 172 194 197 212 218 196 194 182 199 218 226 221 212 199 187 183 131
211 249 242 237 239 253 288 245 282 266 253 233 233 281 275 113 110 244 299 166 134 126 133 143 146 153 152 147 142 139 150 161 172 192 177 169 160 161 166 167 170 153 141 142 139 125 125 148 131 135 169 171 173 171 138 136 150 158 162 173 206 222 188 187 187 212 213 152 146 172 173 183 174 176 192 179 186 186 154 176 166 178 196 210 221 201 176 183 201 222 239 230 217 135 140 101 98
303 265 262 257 289 249 243 304 291 291 291 217 215 256 272 323 103 186 182 187 157 146 152 154 156 151 148 140 132 147 155 174 177 177 179 160 167 162 170 170 165 137 134 145 134 131 137 146 165 157 162 161 133 139 110 109 144 158 168 186 192 206 193 170 184 214 237 131 155 175 176 183 175 196 199 186 193 178 148 154 124 159 180 180 192 170 167 139 150 260 249 197 117 126 93 79 90
277 256 278 292 335 324 257 203 271 127 266 275 196 9 324 341 206 190 168 159 180 153 158 160 162 150 132 131 142 146 157 180 165 154 177 175 166 166 169 165 141 140 150 141 124 133 143 146 162 184 151 179 141 109 75 83 134 139 152 166 168 179 196 202 175 194 228 137 115 92 45 351 264 186 210 211 182 160 145 146 150 169 168 157 153 146 126 104 107 91 35 63 91 90 85 73 74
306 341 182 334 356 318 278 164 237 291 268 192 100 289 273 255 284 181 159 164 164 156 155 159 149 133 138 150 143 142 164 159 133 161 149 159 169 176 98 55 26 359 346 126 126 136 143 145 162 166 170 147 131 130 145 129 139 145 153 153 163 175 195 201 225 126 146 74 97 108 139 171 289 295 209 199 90 171 152 146 151 136 119 100 98 121 107 120 124 122 126 97 66 85 88 86 93
19 284 56 311 349 267 278 242 243 270 235 183 117 228 269 253 203 171 184 165 164 163 168 166 153 145 152 157 145 154 176 172 165 149 91 56 331 85 91 4 118 175 310 169 137 141 141 141 137 137 148 133 127 116 116 120 136 145 145 141 160 173 173 205 242 119 107 121 109 123 141 139 109 268 270 113 57 42 120 117 115 117 112 112 119 138 125 124 136 138 140 108 96 82 89 58 61
322 20 308 330 166 279 277 270 217 221 278 150 133 227 236 258 234 187 189 175 165 163 176 165 153 152 161 156 153 156 172 170 150 142 147 160 209 140 135 152 151 157 214 185 134 135 132 131 130 128 125 117 120 128 131 138 147 158 151 160 148 132 152 180 257 26 95 133 130 117 114 136 169 184 83 335 83 133 156 106 103 113 108 111 121 109 114 128 131 115 99 131 120 97 100 76 30
347 136 269 298 297 263 350 282 202 200 231 257 179 214 301 301 246 191 185 178 172 165 168 163 158 161 167 163 159 152 143 159 145 146 167 166 185 150 132 143 158 168 183 132 132 117 116 121 119 120 125 126 130 130 131 135 141 139 136 137 127 120 130 118 108 252 46 43 52 98 143 165 104 129 171 188 285 183 120 110 117 119 122 125 123 119 109 120 133 119 80 49 118 137 119 124 81
314 3 230 214 229 298 286 288 288 230 187 246 219 202 224 267 268 176 145 175 176 162 169 168 170 168 169 162 150 144 148 152 155 155 165 165 159 143 136 138 141 158 139 133 132 131 133 131 128 127 134 132 134 137 133 130 136 129 107 117 123 103 102 104 87 56 27 12 28 114 128 104 127 287 296 29 4 276 126 131 132 130 128 126 122 117 117 113 89 116 114 68 110 123 136 138 124
232 311 337 309 255 221 244 271 266 159 194 213 220 208 242 292 289 183 182 177 168 168 171 164 163 161 163 174 152 150 153 158 162 158 157 153 154 145 143 144 142 158 135 132 126 122 123 123 122 128 130 127 126 125 117 117 94 66 77 97 84 76 62 80 119 101 43 29 331 51 63 94 131 207 229 207 205 187 142 134 131 147 117 116 115 117 117 107 105 88 126 106 76 114 146 147 132
213 199 218 203 269 279 252 249 243 163 169 210 188 206 226 272 292 279 232 167 169 176 156 147 155 155 164 177 157 158 159 162 159 155 149 150 152 148 158 156 158 165 143 135 130 128 125 123 120 124 132 129 129 116 117 117 90 98 96 85 75 69 74 88 92 116 130 164 180 217 186 157 154 215 204 206 174 171 154 128 134 141 138 137 132 128 137 128 124 111 115 121 116 96 85 115 118
252 233 186 232 239 279 259 277 230 161 149 198 192 211 180 235 230 242 338 78 133 140 155 156 157 161 175 174 166 150 156 167 168 158 157 158 160 160 163 162 156 157 142 140 137 138 137 138 131 141 150 139 137 145 140 142 118 104 88 103 112 105 96 80 70 73 94 122 138 172 182 139 138 157 188 183 157 151 130 115 141 142 120 113 116 132 143 122 121 131 137 102 122 108 30 44 158
228 95 13 315 302 313 297 304 173 187 150 221 84 193 102 274 282 272 140 116 150 160 154 161 166 169 168 164 149 150 157 153 148 157 162 157 164 163 160 163 157 152 160 149 148 150 144 141 143 153 154 149 157 168 174 154 157 147 135 137 127 122 113 96 89 82 86 73 87 104 111 95 116 141 143 142 142 137 143 158 162 139 100 101 106 109 112 113 115 112 114 68 31 90 80 78 355
156 112 329 339 309 263 296 326 67 156 79 216 75 163 202 243 259 267 196 148 208 172 167 169 157 160 164 162 149 145 161 172 168 165 165 166 170 166 165 169 170 166 167 161 155 145 146 147 149 157 164 160 177 182 165 165 117 117 121 144 131 95 57 113 114 117 96 88 74 82 92 94 88 84 116 130 133 141 141 148 159 148 137 138 124 122 120 124 134 134 133 134 104 30 2 60 314
355 340 18 274 246 10 312 314 16 349 138 195 203 111 278 304 276 270 281 132 213 206 173 163 163 165 172 170 166 167 168 166 167 171 173 174 179 173 171 175 176 173 169 161 155 154 154 154 154 160 169 169 178 195 147 94 104 102 103 116 92 101 127 100 87 72 78 74 65 74 65 85 86 87 108 115 125 151 157 158 144 137 151 154 146 152 165 165 151 138 127 131 119 137 241 191 210
311 185 220 292 300 266 211 273 316 301 26 114 62 37 341 352 17 334 326 84 161 212 215 165 176 173 177 173 166 165 167 172 167 173 176 171 173 184 181 179 170 173 176 167 161 159 163 160 160 163 168 174 176 157 127 120 107 95 96 87 93 84 61 66 69 51 59 94 83 65 75 87 92 87 67 63 89 120 138 140 144 142 143 132 136 151 178 184 189 173 150 148 159 151 178 110 67
317 254 192 214 212 228 295 307 20 26 341 338 100 26 297 289 298 255 287 359 138 196 181 186 188 161 133 163 174 184 173 170 170 175 177 179 180 187 179 171 175 177 177 171 164 163 157 161 159 161 162 160 154 153 143 134 129 127 120 114 110 104 103 100 112 122 93 90 113 120 62 68 70 70 71 79 81 94 93 101 103 119 132 134 136 125 101 82 75 218 194 178 180 143 130 121 145
101 269 189 205 193 195 236 278 60 27 196 284 76 148 271 323 320 283 249 54 240 160 204 201 176 169 177 175 172 175 180 179 165 156 166 180 188 181 181 178 177 177 176 160 160 160 159 158 161 162 156 153 154 154 152 133 129 131 133 136 138 140 135 160 130 123 121 117 99 86 77 55 68 74 57 66 70 74 82 84 94 95 99 109 127 129 151 176 190 190 87 177 182 137 155 139 172
218 238 168 178 157 149 207 182 170 228 195 300 30 115 160 311 294 278 299 114 202 211 173 222 199 187 182 183 182 182 182 179 174 178 188 188 186 182 180 178 174 177 157 159 161 161 161 161 160 158 146 150 161 156 157 141 137 136 132 134 140 138 142 148 150 147 135 131 100 93 81 69 66 75 74 64 70 79 89 84 81 79 83 83 92 98 107 108 92 89 63 69 88 99 135 135 136
215 253 196 237 172 152 125 112 126 254 247 284 314 359 54 266 264 314 304 307 286 230 232 194 196 190 188 190 190 190 187 184 176 175 181 182 189 197 182 175 175 156 162 172 171 167 165 161 159 156 151 152 162 164 155 147 142 146 143 140 135 145 136 143 144 135 125 118 110 95 92 84 72 64 73 77 70 79 80 86 79 75 76 77 84 84 77 76 83 93 84 71 79 67 74 105 102
279 207 250 343 117 109 111 107 87 12 91 275 271 220 178 280 273 324 349 177 271 242 238 233 190 190 190 191 183 141 76 116 150 162 179 191 195 194 189 158 160 177 173 168 162 160 162 160 161 159 157 159 163 168 156 151 144 140 139 146 140 140 132 133 130 135 134 131 121 119 115 100 90 75 71 77 76 77 89 89 89 86 85 82 79 81 80 73 72 72 74 87 89 83 65 79 97
238 65 283 353 19 5 32 70 85 66 29 259 246 293 159 265 271 240 246 250 232 259 85 97 176 169 178 180 169 157 155 151 142 152 164 167 135 123 87 157 188 149 151 162 166 169 166 166 165 167 168 162 161 164 157 153 148 148 146 146 139 146 147 141 133 134 135 128 134 136 122 123 110 108 92 83 96 97 90 91 95 94 88 87 82 76 77 87 81 83 79 79 79 95 96 94 86
142 207 135 56 342 12 23 350 40 80 271 262 266 198 151 201 295 294 246 272 243 174 148 167 179 166 154 156 157 149 140 147 139 122 134 147 155 156 145 152 164 185 169 180 178 175 175 172 169 169 170 161 163 165 159 155 150 149 142 141 146 153 151 149 149 153 158 154 150 143 136 115 116 111 102 99 91 96 98 92 92 87 87 85 87 97 93 90 88 80 70 75 76 72 81 81 83
68 71 64 103 284 32 338 5 351 178 195 249 235 4 47 245 221 233 301 298 109 121 142 150 126 101 119 132 142 145 141 133 126 122 133 159 172 168 170 174 163 180 194 194 190 185 180 175 174 170 172 165 168 166 165 158 149 149 145 145 150 155 154 155 154 156 165 156 158 145 143 141 136 118 127 115 122 111 111 105 100 102 99 100 104 97 95 90 85 82 84 75 72 69 73 88 85
121 127 117 84 95 75 223 271 234 319 303 267 8 238 222 258 288 234 253 307 305 131 114 108 109 108 98 85 75 101 120 125 123 123 123 145 164 181 183 177 187 190 198 202 201 189 178 180 180 175 173 165 156 159 165 157 158 149 142 146 152 158 162 160 161 163 170 167 165 160 159 156 155 154 153 149 155 126 110 122 115 112 117 118 111 108 103 101 95 93 88 85 82 94 84 84 93
209 165 137 173 147 157 212 207 198 209 204 271 297 52 252 62 254 257 320 182 84 127 114 107 98 96 92 88 86 82 90 91 91 80 80 85 117 187 195 193 192 196 200 207 206 197 165 92 60 59 64 54 46 30 12 29 12 136 147 150 158 170 166 168 168 169 168 172 177 165 166 158 152 163 159 166 144 128 135 125 126 123 121 115 113 104 102 95 95 91 92 96 93 94 90 87 83
275 141 88 80 200 130 166 203 159 209 230 339 329 214 196 193 259 306 27 90 76 111 112 112 112 113 108 96 93 97 95 91 84 91 64 17 12 11 200 228 226 212 203 207 203 106 84 95 116 126 126 123 116 105 98 15 318 121 158 164 172 174 172 167 167 173 176 179 180 172 170 166 161 159 163 146 159 143 143 135 127 129 125 112 115 123 118 113 111 104 94 94 89 98 101 93 101
259 73 131 211 182 131 107 348 198 102 62 257 215 329 302 300 8 93 73 102 112 95 108 114 121 124 121 122 124 120 110 100 93 91 74 30 10 1 3 131 206 214 213 87 80 93 93 84 68 49 47 75 111 122 139 165 214 246 214 183 171 177 179 171 175 182 182 186 179 181 170 172 159 157 160 155 155 151 147 141 135 136 122 115 112 122 125 125 121 116 118 110 112 105 104 118 110
68 82 237 296 82 118 120 172 347 55 138 261 342 206 284 71 275 335 67 164 147 126 141 138 140 142 134 144 145 144 135 130 131 123 121 121 105 63 40 38 70 96 115 121 121 116 118 110 105 98 93 86 64 72 111 143 220 260 234 199 177 179 191 180 174 184 186 178 177 175 168 163 171 167 156 160 153 152 153 146 142 148 142 123 125 127 128 132 121 116 130 138 149 125 104 91 109
150 188 212 94 229 340 326 87 187 109 262 251 308 213 238 179 240 309 193 184 227 128 139 131 137 139 135 140 136 137 136 129 121 101 87 70 60 55 58 68 77 104 116 118 121 115 105 124 117 111 121 138 146 156 173 171 205 229 222 203 165 176 210 200 175 176 174 184 179 175 178 184 173 166 153 154 154 155 154 154 149 153 147 125 112 123 129 130 127 122 126 129 141 128 124 131 161
23 88 32 252 105 186 158 197 190 124 242 51 287 42 288 245 232 259 284 279 244 149 124 97 101 111 137 144 139 130 108 98 92 90 81 73 62 54 53 54 80 119 131 135 133 141 150 161 146 162 166 166 161 130 89 47 301 268 237 210 172 181 191 207 180 172 175 185 188 179 180 172 180 175 167 159 160 160 160 155 160 156 157 145 133 132 132 132 124 133 144 138 165 133 131 147 175
331 21 332 320 99 209 123 22 114 150 165 165 188 11 284 286 251 291 333 270 146 146 128 134 125 113 78 64 91 88 93 103 101 94 89 84 77 64 52 54 66 86 100 130 154 158 156 159 172 176 169 125 117 148 176 180 206 230 217 194 182 186 187 200 189 178 175 187 187 182 181 183 168 177 167 166 164 166 162 161 159 162 160 163 149 150 142 143 140 144 161 165 153 143 144 169 158
183 169 242 211 105 75 102 273 334 84 91 197 110 225 264 274 347 325 74 204 165 188 124 134 148 147 153 145 136 141 118 96 90 76 70 87 88 82 73 63 66 75 81 97 99 112 158 171 180 176 131 148 158 178 190 201 204 209 198 185 171 150 166 187 208 181 180 187 186 183 184 170 175 181 175 170 168 167 163 159 161 163 165 164 162 165 155 147 148 156 176 183 159 155 159 174 171